Change the Weather History Date:

Monday, February 4, 2013

  Actual Average Record
Temperature  
Mean Temperature 26 °F -  
Max Temperature 32 °F 0 °F 51 °F (2006)
Min Temperature 19 °F - 3 °F (2007)
Degree Days  
Heating Degree Days 40    
Moisture  
Dew Point 13 °F    
Average Humidity 57    
Maximum Humidity 75    
Minimum Humidity 45    
Precipitation  
Precipitation 0.00 in - - ()
Sea Level Pressure  
Sea Level Pressure 29.99 in    
Wind  
Wind Speed 7 mph (West)    
Max Wind Speed 18 mph    
Max Gust Speed 23 mph    
Visibility 10 miles    
Events      
Averages and records for this station are not official NWS values.
T = Trace of Precipitation, MM = Missing Value Source: NWS Daily Summary

Daily Weather History Graph

Daily Weather History Graph

Search for Another Location

Airport or City:

Trip Planner

Search our weather history database for the weather conditions in past years. The results will help you decide how hot, cold, wet, or windy it might be!

Date:

Astronomy

Feb. 04, 2013 Rise Set
Actual Time 7:12 AM EST 5:30 PM EST
Civil Twilight 6:44 AM EST 5:59 PM EST
Nautical Twilight 6:12 AM EST 6:31 PM EST
Astronomical Twilight 5:40 AM EST 7:02 PM EST
Moon 1:45 AM EST (2/4) 11:52 AM EST (2/4)
Length of Visible Light 11h 14m
Length of Day
10h 18m
Last Quarter, 37% of the Moon is Illuminated
Feb 4
Last Quarter
Feb 10
New
Feb 17
First Quarter
Feb 25
Full
Mar 4
Last Quarter

Hourly Weather History & Observations

Time (EST) Temp. Windchill Dew Point Humidity Pressure Visibility Wind Dir Wind Speed Gust Speed Precip Events Conditions
12:53 AM 23.0 °F 13.1 °F 10.0 °F 58% 29.96 in 10.0 mi WNW 9.2 mph - N/A   Clear
1:53 AM 21.9 °F 13.4 °F 10.0 °F 60% 29.97 in 10.0 mi WNW 6.9 mph - N/A   Mostly Cloudy
2:53 AM 21.9 °F 12.5 °F 12.0 °F 66% 29.99 in 10.0 mi WNW 8.1 mph - N/A   Partly Cloudy
3:53 AM 21.0 °F 10.6 °F 9.0 °F 60% 29.99 in 10.0 mi West 9.2 mph - N/A   Partly Cloudy
5:53 AM 19.9 °F 9.3 °F 7.0 °F 57% 30.01 in 10.0 mi WNW 9.2 mph - N/A   Partly Cloudy
6:53 AM 19.9 °F 10.1 °F 7.0 °F 57% 30.04 in 10.0 mi WNW 8.1 mph - N/A   Clear
7:53 AM 19.9 °F 13.4 °F 8.1 °F 60% 30.06 in 10.0 mi WSW 4.6 mph - N/A   Mostly Cloudy
8:53 AM 21.9 °F 11.7 °F 8.1 °F 55% 30.07 in 10.0 mi West 9.2 mph - N/A   Mostly Cloudy
9:53 AM 24.1 °F 10.1 °F 8.1 °F 51% 30.08 in 10.0 mi West 18.4 mph 23.0 mph N/A   Mostly Cloudy
10:53 AM 25.0 °F 15.5 °F 9.0 °F 51% 30.08 in 10.0 mi WNW 9.2 mph - N/A   Mostly Cloudy
11:53 AM 27.0 °F 18.7 °F 10.0 °F 49% 30.04 in 10.0 mi West 8.1 mph - N/A   Partly Cloudy
12:53 PM 28.9 °F 22.8 °F 12.0 °F 49% 30.02 in 10.0 mi West 5.8 mph 17.3 mph N/A   Clear
1:53 PM 28.9 °F 21.1 °F 12.9 °F 51% 29.99 in 10.0 mi WSW 8.1 mph - N/A   Overcast
2:53 PM 32.0 °F 27.5 °F 14.0 °F 48% 29.97 in 10.0 mi WNW 4.6 mph - N/A   Overcast
3:53 PM 32.0 °F 27.5 °F 12.9 °F 45% 29.96 in 10.0 mi West 4.6 mph - N/A   Scattered Clouds
4:53 PM 30.9 °F 26.2 °F 15.1 °F 52% 29.96 in 10.0 mi SW 4.6 mph - N/A   Overcast
5:53 PM 30.9 °F 27.5 °F 15.1 °F 52% 29.95 in 10.0 mi SSW 3.5 mph - N/A   Overcast
6:53 PM 30.9 °F 26.2 °F 16.0 °F 54% 29.95 in 10.0 mi SSW 4.6 mph - N/A   Overcast
7:53 PM 30.9 °F - 16.0 °F 54% 29.95 in 10.0 mi Calm Calm - N/A   Overcast
8:53 PM 30.9 °F 25.2 °F 17.1 °F 57% 29.95 in 10.0 mi SSW 5.8 mph - N/A   Overcast
9:53 PM 30.9 °F - 19.9 °F 64% 29.94 in 10.0 mi Calm Calm - 0.00 in   Overcast
10:53 PM 30.0 °F - 23.0 °F 75% 29.92 in 10.0 mi Calm Calm - N/A   Overcast
11:53 PM 30.0 °F - 23.0 °F 75% 29.91 in 10.0 mi Calm Calm - N/A   Overcast